Time,TemperatureF,DewpointF,PressureIn,WindDirection,WindDirectionDegrees,WindSpeedMPH,WindSpeedGustMPH,Humidity,HourlyPrecipIn,Conditions,Clouds,dailyrainin,SoftwareType,DateUTC
2013-05-19 10:00:00,79.8,59.5,30.00,South,180,0.0,1.0,50,0.00,,---,0.00,VWS V14.01,2013-05-19 07:00:00,
2013-05-19 10:30:00,81.7,60.1,29.99,SW,214,0.0,3.0,48,0.00,,---,0.00,VWS V14.01,2013-05-19 07:30:00,
2013-05-19 10:40:00,82.2,60.6,29.99,WSW,246,0.0,3.0,48,0.00,,---,0.00,VWS V14.01,2013-05-19 07:40:00,
2013-05-19 10:50:00,82.8,61.1,29.99,South,191,0.0,6.0,48,0.00,,---,0.00,VWS V14.01,2013-05-19 07:50:00,
2013-05-19 11:00:00,82.9,61.8,29.98,WSW,245,0.0,4.0,49,0.00,,---,0.00,VWS V14.01,2013-05-19 08:00:00,
2013-05-19 11:10:00,84.1,62.3,29.99,SSW,212,0.0,4.0,48,0.00,,---,0.00,VWS V14.01,2013-05-19 08:10:00,
2013-05-19 11:20:00,84.3,61.3,29.99,SSW,209,0.0,1.0,46,0.00,,---,0.00,VWS V14.01,2013-05-19 08:20:00,
2013-05-19 11:30:00,85.1,60.8,29.98,SW,236,3.0,3.0,44,0.00,,---,0.00,VWS V14.01,2013-05-19 08:30:00,
2013-05-19 11:40:00,85.0,61.3,29.98,SW,236,0.0,3.0,45,0.00,,---,0.00,VWS V14.01,2013-05-19 08:40:00,
2013-05-19 11:50:00,85.7,61.3,29.98,SSW,213,0.0,2.0,44,0.00,,---,0.00,VWS V14.01,2013-05-19 08:50:00,
2013-05-19 12:00:00,86.3,61.2,29.98,NW,325,0.0,4.0,43,0.00,,---,0.00,VWS V14.01,2013-05-19 09:00:00,
2013-05-19 12:10:00,85.6,61.2,29.98,WNW,287,0.0,3.0,44,0.00,,---,0.00,VWS V14.01,2013-05-19 09:10:00,
2013-05-19 12:20:00,86.3,61.8,29.98,WNW,284,0.0,2.0,44,0.00,,---,0.00,VWS V14.01,2013-05-19 09:20:00,
2013-05-19 12:30:00,86.7,61.5,29.98,SSW,200,0.0,4.0,43,0.00,,---,0.00,VWS V14.01,2013-05-19 09:30:00,
2013-05-19 12:40:00,86.8,60.3,29.98,WSW,237,1.0,5.0,41,0.00,,---,0.00,VWS V14.01,2013-05-19 09:40:00,
2013-05-19 12:50:00,86.9,62.4,29.98,SSW,213,0.0,4.0,44,0.00,,---,0.00,VWS V14.01,2013-05-19 09:50:00,
2013-05-19 13:00:00,87.1,61.2,29.97,SSW,195,0.0,4.0,42,0.00,,---,0.00,VWS V14.01,2013-05-19 10:00:00,
2013-05-19 13:10:00,88.1,62.8,29.97,SSW,200,5.0,5.0,43,0.00,,---,0.00,VWS V14.01,2013-05-19 10:10:00,
2013-05-19 13:20:00,87.9,61.3,29.97,South,172,0.0,5.0,41,0.00,,---,0.00,VWS V14.01,2013-05-19 10:20:00,
2013-05-19 13:30:00,88.5,60.4,29.97,South,186,0.0,4.0,39,0.00,,---,0.00,VWS V14.01,2013-05-19 10:30:00,
2013-05-19 13:40:00,87.8,60.5,29.96,SSW,192,0.0,4.0,40,0.00,,---,0.00,VWS V14.01,2013-05-19 10:40:00,
2013-05-19 13:50:00,88.4,61.7,29.96,SW,219,0.0,3.0,41,0.00,,---,0.00,VWS V14.01,2013-05-19 10:50:00,
2013-05-19 14:00:00,88.0,62.0,29.96,ESE,114,0.0,4.0,42,0.00,,---,0.00,VWS V14.01,2013-05-19 11:00:00,
2013-05-19 14:10:00,87.9,61.3,29.96,East,96,2.0,4.0,41,0.00,,---,0.00,VWS V14.01,2013-05-19 11:10:00,
2013-05-19 14:20:00,87.1,61.2,29.95,NW,323,0.0,4.0,42,0.00,,---,0.00,VWS V14.01,2013-05-19 11:20:00,
2013-05-19 14:30:00,87.9,60.6,29.95,ESE,103,0.0,5.0,40,0.00,,---,0.00,VWS V14.01,2013-05-19 11:30:00,
2013-05-19 14:40:00,88.3,61.6,29.95,SSE,151,1.0,5.0,41,0.00,,---,0.00,VWS V14.01,2013-05-19 11:40:00,
2013-05-19 14:50:00,88.4,61.0,29.95,South,169,0.0,6.0,40,0.00,,---,0.00,VWS V14.01,2013-05-19 11:50:00,
2013-05-19 15:00:00,89.4,61.2,29.95,SE,133,4.0,6.0,39,0.00,,---,0.00,VWS V14.01,2013-05-19 12:00:00,
2013-05-19 15:10:00,88.5,61.1,29.95,SE,138,0.0,7.0,40,0.00,,---,0.00,VWS V14.01,2013-05-19 12:10:00,
2013-05-19 15:20:00,87.6,61.0,29.95,ESE,113,1.0,7.0,41,0.00,,---,0.00,VWS V14.01,2013-05-19 12:20:00,
2013-05-19 15:30:00,88.7,62.0,29.95,SSW,207,0.0,5.0,41,0.00,,---,0.00,VWS V14.01,2013-05-19 12:30:00,
2013-05-19 15:40:00,89.0,60.8,29.95,SE,134,6.0,6.0,39,0.00,,---,0.00,VWS V14.01,2013-05-19 12:40:00,
2013-05-19 15:50:00,89.0,61.6,29.95,SSW,213,0.0,6.0,40,0.00,,---,0.00,VWS V14.01,2013-05-19 12:50:00,
2013-05-19 16:00:00,89.2,61.8,29.94,SSE,167,0.0,5.0,40,0.00,,---,0.00,VWS V14.01,2013-05-19 13:00:00,
2013-05-19 16:10:00,88.6,60.5,29.94,South,184,0.0,9.0,39,0.00,,---,0.00,VWS V14.01,2013-05-19 13:10:00,
2013-05-19 16:20:00,87.3,60.0,29.94,SE,137,6.0,6.0,40,0.00,,---,0.00,VWS V14.01,2013-05-19 13:20:00,
2013-05-19 16:30:00,87.1,59.9,29.94,ESE,119,0.0,6.0,40,0.00,,---,0.00,VWS V14.01,2013-05-19 13:30:00,
2013-05-19 16:40:00,87.3,60.0,29.94,ESE,122,0.0,6.0,40,0.00,,---,0.00,VWS V14.01,2013-05-19 13:40:00,
2013-05-19 16:50:00,87.2,61.3,29.94,SE,141,0.0,5.0,42,0.00,,---,0.00,VWS V14.01,2013-05-19 13:50:00,
2013-05-19 17:00:00,87.3,60.8,29.94,South,190,2.0,6.0,41,0.00,,---,0.00,VWS V14.01,2013-05-19 14:00:00,
2013-05-19 17:10:00,86.8,60.3,29.94,SE,130,0.0,9.0,41,0.00,,---,0.00,VWS V14.01,2013-05-19 14:10:00,
2013-05-19 17:20:00,86.6,59.4,29.94,SSE,160,5.0,9.0,40,0.00,,---,0.00,VWS V14.01,2013-05-19 14:20:00,
2013-05-19 17:30:00,86.1,59.7,29.94,SE,134,4.0,7.0,41,0.00,,---,0.00,VWS V14.01,2013-05-19 14:30:00,
2013-05-19 17:40:00,86.2,59.8,29.94,South,185,0.0,6.0,41,0.00,,---,0.00,VWS V14.01,2013-05-19 14:40:00,
2013-05-19 17:50:00,87.0,59.8,29.94,South,169,0.0,6.0,40,0.00,,---,0.00,VWS V14.01,2013-05-19 14:50:00,
2013-05-19 18:00:00,86.6,59.4,29.94,SE,125,0.0,9.0,40,0.00,,---,0.00,VWS V14.01,2013-05-19 15:00:00,
2013-05-19 18:10:00,85.2,59.5,29.93,SE,126,0.0,9.0,42,0.00,,---,0.00,VWS V14.01,2013-05-19 15:10:00,
2013-05-19 18:20:00,85.0,58.7,29.93,SE,135,0.0,5.0,41,0.00,,---,0.00,VWS V14.01,2013-05-19 15:20:00,
2013-05-19 18:30:00,85.2,58.2,29.93,SW,219,0.0,3.0,40,0.00,,---,0.00,VWS V14.01,2013-05-19 15:30:00,
2013-05-19 18:40:00,85.0,59.4,29.94,SSW,210,0.0,2.0,42,0.00,,---,0.00,VWS V14.01,2013-05-19 15:40:00,
2013-05-19 18:50:00,84.3,63.7,29.94,SSW,211,0.0,1.0,50,0.00,,---,0.00,VWS V14.01,2013-05-19 15:50:00,
2013-05-19 19:00:00,82.8,63.4,29.94,SW,222,0.0,2.0,52,0.00,,---,0.00,VWS V14.01,2013-05-19 16:00:00,
2013-05-19 19:10:00,81.2,63.0,29.94,SW,225,0.0,2.0,54,0.00,,---,0.00,VWS V14.01,2013-05-19 16:10:00,
2013-05-19 19:20:00,79.6,62.0,29.95,WSW,252,0.0,3.0,55,0.00,,---,0.00,VWS V14.01,2013-05-19 16:20:00,
2013-05-19 19:30:00,78.6,61.1,29.95,WSW,253,0.0,3.0,55,0.00,,---,0.00,VWS V14.01,2013-05-19 16:30:00,
2013-05-19 19:40:00,77.9,60.5,29.95,WSW,254,0.0,0.0,55,0.00,,---,0.00,VWS V14.01,2013-05-19 16:40:00,
2013-05-19 19:50:00,77.4,60.0,29.95,WSW,253,0.0,3.0,55,0.00,,---,0.00,VWS V14.01,2013-05-19 16:50:00,
2013-05-19 20:00:00,76.9,60.0,29.95,WSW,254,0.0,0.0,56,0.00,,---,0.00,VWS V14.01,2013-05-19 17:00:00,
2013-05-19 20:10:00,76.5,59.7,29.95,WSW,253,0.0,0.0,56,0.00,,---,0.00,VWS V14.01,2013-05-19 17:10:00,
2013-05-19 20:20:00,75.9,59.1,29.96,WSW,254,0.0,0.0,56,0.00,,---,0.00,VWS V14.01,2013-05-19 17:20:00,
2013-05-19 20:30:00,75.5,59.2,29.96,WSW,256,0.0,0.0,57,0.00,,---,0.00,VWS V14.01,2013-05-19 17:30:00,
2013-05-19 20:40:00,75.2,58.9,29.96,WSW,257,0.0,0.0,57,0.00,,---,0.00,VWS V14.01,2013-05-19 17:40:00,
2013-05-19 20:50:00,75.0,59.2,29.96,WSW,253,0.0,0.0,58,0.00,,---,0.00,VWS V14.01,2013-05-19 17:50:00,
2013-05-19 21:01:00,74.6,59.3,29.97,WSW,253,0.0,0.0,59,0.00,,---,0.00,VWS V14.01,2013-05-19 18:01:00,
2013-05-19 21:10:00,74.5,59.7,29.96,WSW,254,0.0,0.0,60,0.00,,---,0.00,VWS V14.01,2013-05-19 18:10:00,
2013-05-19 21:20:00,74.3,59.5,29.97,WSW,255,0.0,0.0,60,0.00,,---,0.00,VWS V14.01,2013-05-19 18:20:00,
2013-05-19 21:30:00,74.1,59.8,29.97,WSW,254,0.0,0.0,61,0.00,,---,0.00,VWS V14.01,2013-05-19 18:30:00,
2013-05-19 21:40:00,74.2,59.9,29.97,WSW,255,0.0,0.0,61,0.00,,---,0.00,VWS V14.01,2013-05-19 18:40:00,
2013-05-19 21:50:00,74.1,59.8,29.97,WSW,254,0.0,0.0,61,0.00,,---,0.00,VWS V14.01,2013-05-19 18:50:00,
2013-05-19 22:00:00,74.0,60.2,29.97,WSW,255,0.0,0.0,62,0.00,,---,0.00,VWS V14.01,2013-05-19 19:00:00,
2013-05-19 22:10:00,73.9,60.1,29.97,WSW,254,0.0,0.0,62,0.00,,---,0.00,VWS V14.01,2013-05-19 19:10:00,
2013-05-19 22:20:00,73.8,60.4,29.97,WSW,254,0.0,0.0,63,0.00,,---,0.00,VWS V14.01,2013-05-19 19:20:00,
2013-05-19 22:30:00,73.7,60.3,29.97,WSW,255,0.0,0.0,63,0.00,,---,0.00,VWS V14.01,2013-05-19 19:30:00,